Rough And Ready, CA (95975)

4:37 PM PST on February 11, 2016 (GMT -0800)
APRSWXNET | | Change Station
CLOSE
Current Station
Personal Weather Station
Location: Rough And Ready, CA
Elevation: 2049 ft
Nearby Weather Stations

Elev 2049 ft 39.23 °N, 121.12 °W | Updated 24 minutes ago

Partly Cloudy
Partly Cloudy
68 °F
Feels Like 68 °F
N
0
Wind Variable Wind from WSW
Gusts 1.0 mph

Today
High -- | Low -- °F
--% Chance of Precip.
Yesterday
High -- | Low -- °F
Precip. -- in
Pressure 30.23 in
Visibility 10.0 miles
Clouds Clear
Dew Point 47 °F
Humidity 47%
Rainfall in
Snow Depth Not available.
7:01 AM 5:36 PM
Waxing Crescent, 15% visible
METAR KGOO 120015Z AUTO 29005KT 10SM CLR 19/05 A3023 RMK AO1
Pressure 30.23 in
Visibility 10.0 miles
Clouds Clear
Dew Point 47 °F
Humidity 47%
Rainfall in
Snow Depth Not available.
7:01 AM 5:36 PM
Waxing Crescent, 15% visible
METAR KGOO 120015Z AUTO 29005KT 10SM CLR 19/05 A3023 RMK AO1

10-Day Weather Forecast

Almanac

Astronomy

Feb. 11, 2016 Rise Set
Actual Time
Civil Twilight
Nautical Twilight
Astronomical Twilight
Moon
Length of Visible Light
Length of Day
Tomorrow will be .
, % of the Moon is Illuminated

Today's Extremes

State Highs State Lows

Community

WunderPhotos

Upload Photos

1,892,194 photos uploaded!

WunderBlog® & News

Nearby

Air Quality

  Air Quality AQ Index Pollutant
Not available.

Snow Depth

Station Depth Elevation

Earthquake Activity

City Distance Mag. Time & Date
Minimum magnitude displayed is 2.5.

Coastal Water Temperatures

Place Temperature

Stations

Nearby Weather Stations

Station Location Temp. Windchill Dew Point Humidity Wind Precip. Elev Updated Type
                   

Watches & Warnings

There are currently no watches in effect.